This is the latest recevied weather packets stored in our database for station/object N6GPM. If no packets are shown the sender has not sent any weather packets the latest 10 day(s).
| Time | Temp. | Humidity | Pressure | Rain* | Wind** | Luminosity | Snow |
|---|---|---|---|---|---|---|---|
| 1787601547 | 36.67° C | 25% | 1018.9 hPa | 0 mm | - | 1003 W/m² | - |
| 1787601241 | 36.67° C | 25% | 1019.4 hPa | 0 mm | - | 1001 W/m² | - |
| 1787600940 | 36.67° C | 25% | 1019.3 hPa | 0 mm | - | 1002 W/m² | - |
| 1787600635 | 36.67° C | 26% | 1019.2 hPa | 0 mm | - | 1004 W/m² | - |
| 1787600330 | 36.67° C | 25% | 1019.3 hPa | 0 mm | - | 1005 W/m² | - |
| 1787600026 | 36.67° C | 25% | 1019.5 hPa | 0 mm | - | 1004 W/m² | - |
| 1787599723 | 36.67° C | 24% | 1019.2 hPa | 0 mm | - | 1000 W/m² | - |
| 1787599419 | 36.67° C | 25% | 1019.5 hPa | 0 mm | - | 999 W/m² | - |
| 1787599115 | 36.67° C | 24% | 1019.4 hPa | 0 mm | - | 998 W/m² | - |
| 1787598810 | 36.67° C | 23% | 1019.4 hPa | 0 mm | - | 993 W/m² | - |
| 1787598506 | 36.67° C | 24% | 1019.6 hPa | 0 mm | - | 989 W/m² | - |
| 1787598201 | 36.67° C | 24% | 1019.6 hPa | 0 mm | - | 985 W/m² | - |
| 1787597897 | 36.67° C | 25% | 1019.5 hPa | 0 mm | - | 980 W/m² | - |
| 1787597596 | 36.67° C | 25% | 1019.7 hPa | 0 mm | - | 970 W/m² | - |
| 1787597295 | 35.56° C | 26% | 1019.8 hPa | 0 mm | - | 961 W/m² | - |
| 1787596990 | 35° C | 26% | 1020 hPa | 0 mm | - | 956 W/m² | - |
| 1787596687 | 35.56° C | 26% | 1019.9 hPa | 0 mm | - | 952 W/m² | - |
| 1787596382 | 35.56° C | 26% | 1020.1 hPa | 0 mm | - | 944 W/m² | - |
| 1787596077 | 35.56° C | 27% | 1020.1 hPa | 0 mm | - | 940 W/m² | - |
| 1787595773 | 35.56° C | 26% | 1020.1 hPa | 0 mm | - | 937 W/m² | - |
| 1787595469 | 35.56° C | 26% | 1020 hPa | 0 mm | - | 931 W/m² | - |
| 1787595164 | 35.56° C | 28% | 1020.1 hPa | 0 mm | - | 925 W/m² | - |
| 1787594858 | 35° C | 29% | 1020 hPa | 0 mm | - | 926 W/m² | - |
| 1787594553 | 35° C | 29% | 1020.2 hPa | 0 mm | - | 752 W/m² | - |
| 1787594251 | 35° C | 29% | 1020.2 hPa | 0 mm | - | 891 W/m² | - |
* Rain latest hour (hover to see other rain measurements)
** Current wind speed in m/s (hover to see current wind gust speed)